Torax TimeFrame

Torax TimeFrame ⇒ XML

NameTime LeftWindow Opens
Crantos, Defender of Ultimation1d 15:022018-12-09 12:47:00
Esquin, the Kinetic Master1d 13:512018-12-09 13:58:00
Gorganus of the Wood1d 10:292018-12-09 17:20:00
Quiver, The Renegade1d 08:312018-12-09 19:18:00
Slashbrood, Devourer of the Blackness1d 03:552018-12-09 23:54:00
Tsort0d 22:282018-12-10 05:21:00
Samatha Dark-Soul0d 21:542018-12-10 05:55:00
Howldroid, Tormentor of the Pit0d 21:242018-12-10 06:25:00
Pinosis0d 13:062018-12-10 14:43:00
Threk, King of Lords0d 09:252018-12-10 18:24:00
Noxious Slug0d 07:562018-12-10 19:53:00
Bolkor, the Holy Master0d 06:212018-12-10 21:28:00
Lady Chaos, Queen of the Abyss0d 05:402018-12-10 22:09:00
Sarcrina the Astral Priestess0d 05:312018-12-10 22:18:00
Zikkir the Dark Archer0d 05:032018-12-10 22:46:00
Jorun the Blazing Swordsman0d 04:512018-12-10 22:58:00
Murderface0d 04:342018-12-10 23:15:00
Lord Varan0d 03:552018-12-10 23:54:00
Amalgamated Apparition0d 03:162018-12-11 00:33:00
Crane0d 02:422018-12-11 01:07:00
Ebliss, Fallen Angel of Despair0d 02:232018-12-11 01:26:00
Lord Sibannac0d 01:402018-12-11 02:09:00
Volgan the Living Ironbark0d 01:242018-12-11 02:25:00
Raiyar, the Shadow Master0d 00:172018-12-11 04:07:00
Great Lord Ganeshan0d 01:322018-12-11 05:22:00
Freezebreed, The Frozen Manipulator0d 02:072018-12-11 05:57:00
Melt Bane, The Forbidden Demon Dragon0d 04:022018-12-11 07:52:00
Zertan, The Collector0d 05:312018-12-11 09:21:00
Jazzmin, Maiden of Vitality0d 05:342018-12-11 09:24:00
Lord Xordam0d 06:222018-12-11 10:12:00
Felroc, Overseer of Hellfire0d 06:262018-12-11 10:16:00
Baron Mu, Dark Rider of the Undead0d 06:362018-12-11 10:26:00
Q-SEC Commander0d 08:422018-12-11 12:32:00
Akkel the Enflamed Warrior0d 09:102018-12-11 13:00:00
The Emerald Assassin0d 13:472018-12-11 17:37:00
Tylos, The Lord Master0d 15:222018-12-11 19:12:00
Straya, the Underworld Ruler0d 16:122018-12-11 20:02:00
Anvilfist0d 18:502018-12-11 22:40:00
Gnorb0d 19:102018-12-11 23:00:00
Nessam0d 19:112018-12-11 23:01:00
Anguish0d 19:142018-12-11 23:04:00
Nayark the Mummified Sorcerer0d 19:382018-12-11 23:28:00
Keeper of Nature0d 21:012018-12-12 00:51:00
Balerion, Dragon of Dread0d 21:042018-12-12 00:54:00
Ancient Magus Tarkin0d 21:282018-12-12 01:18:00
Nar Zhul, Slayer of All0d 22:522018-12-12 02:42:00
Sigil, Lich of Woe0d 23:012018-12-12 02:51:00
Viserion, the Necrodragon0d 23:562018-12-12 03:46:00
Skarthul the Avenged1d 00:362018-12-12 04:26:00
Dreg nor, Keeper of the Infernal Essence1d 00:442018-12-12 04:34:00
Brutalitar, Lord of the Underworld1d 00:522018-12-12 04:42:00
Shadow1d 02:072018-12-12 05:57:00
Lord Narada1d 02:272018-12-12 06:17:00
Terrance, Rebel of Rallis1d 03:092018-12-12 06:59:00
Bloodchill the Grizzly1d 05:162018-12-12 09:06:00
Detox1d 05:202018-12-12 09:10:00
Beast of Cards1d 07:032018-12-12 10:53:00
Rotborn, Eater of the Dead1d 08:502018-12-12 12:40:00
Smoot the Yeti1d 13:092018-12-12 16:59:00
Dlanod, the Crazed Chancellor1d 18:372018-12-12 22:27:00
Lady Ariella1d 19:292018-12-12 23:19:00
Ganja the Stone Golem1d 23:292018-12-13 03:19:00
Sylvanna TorLai2d 01:462018-12-13 05:36:00
King Ashnar, Lord of the Unliving2d 02:552018-12-13 06:45:00
Numerocure, The Black Messenger of Evil2d 04:022018-12-13 07:52:00
Xynak, the Arcane Master2d 05:472018-12-13 09:37:00
Varsanor, Master of Darkness2d 07:292018-12-13 11:19:00
Ag Nabak the Abomination2d 08:132018-12-13 12:03:00
Ormsul the Putrid2d 08:412018-12-13 12:31:00
Emperor Neudeus, Controller of the Universe2d 10:392018-12-13 14:29:00
Hackerphage, Protector of the Gateway2d 12:312018-12-13 16:21:00
Kro Shuk, Doomslayer2d 13:382018-12-13 17:28:00
Grivvek, Protector of the Brood2d 14:042018-12-13 17:54:00
Archdevil Yirkon2d 16:542018-12-13 20:44:00
Lord Suka2d 17:452018-12-13 21:35:00
Skybrine The Inescapable2d 18:112018-12-13 22:01:00
Windstrike The Vile2d 19:162018-12-13 23:06:00
Crolvak, the Fire Master3d 06:582018-12-14 10:48:00
Kretok, Descendant of Nature3d 10:512018-12-14 14:41:00
Nafir, God of Desolation3d 14:252018-12-14 18:15:00
Karvaz, Lord of Alsayic3d 22:462018-12-15 02:36:00
Lacuste of the Swarm4d 07:052018-12-15 10:55:00
Shaik, Servant of Arkron156d 22:062018-07-07 05:43:00
Rook, Hand of Arkron155d 00:412018-07-09 03:08:00
Jade Dragonite109d 06:482018-08-23 21:01:00
Animated Captain100d 09:272018-09-01 18:22:00
Old World Drake100d 08:142018-09-01 19:35:00
Vitkros, Hydra of the Deep4d 05:122018-12-06 22:37:00
Wanhiroeaz the Devourer3d 19:332018-12-07 08:16:00
Mistress of the Sword3d 14:562018-12-07 12:53:00
Hyrak, Bringer of Nightmares3d 10:082018-12-07 17:41:00
Rancid, Lord of Thugs3d 02:492018-12-08 01:00:00
Traxodon the Plaguebringer2d 16:162018-12-08 11:33:00
Garland, The Lord Keeper2d 05:552018-12-08 21:54:00
Synge, The Red Dragon1d 20:372018-12-09 07:12:00
95 Gods, Last update: 2018-12-11 03:15:02